• In Italy
  • List of Countries
  • For 7 days
  • Water Temperature
  • Satellite Maps
  • Weather Map
  • Weather Widgets
  • user-avatar
    Login

    Hourly Weather Ben-Gurion

    Today, 17 January, Wednesday

    Time Temperature Precipitation Wind Pressure Humidity
    00:00 +14°C° 0 mm 2 mps 760 mmHg 76%
    01:00 +14°C° 0 mm 2 mps 759 mmHg 76%
    02:00 +14°C° 0 mm 2 mps 759 mmHg 76%
    03:00 +14°C° 0.1 mm 2 mps 759 mmHg 77%
    04:00 +14°C° 0.1 mm 2 mps 759 mmHg 78%
    05:00 +13°C° 0.1 mm 2 mps 758 mmHg 80%
    06:00 +14°C° 0.1 mm 2 mps 758 mmHg 78%
    07:00 +14°C° 0.1 mm 2 mps 758 mmHg 76%
    08:00 +14°C° 0 mm 4 mps 758 mmHg 74%
    09:00 +14°C° 0.4 mm 5 mps 758 mmHg 72%
    10:00 +15°C° 0.4 mm 5 mps 758 mmHg 69%
    11:00 +16°C° 0.4 mm 6 mps 758 mmHg 66%
    12:00 +16°C° 0.6 mm 6 mps 757 mmHg 68%
    13:00 +16°C° 0.6 mm 6 mps 757 mmHg 69%
    14:00 +16°C° 0.6 mm 6 mps 757 mmHg 71%
    15:00 +15°C° 0.3 mm 5 mps 757 mmHg 72%
    16:00 +15°C° 0.3 mm 4 mps 757 mmHg 73%
    17:00 +15°C° 0.3 mm 4 mps 757 mmHg 74%
    18:00 +16°C° 0.2 mm 3 mps 757 mmHg 75%
    19:00 +14°C° 0.2 mm 3 mps 757 mmHg 76%
    20:00 +14°C° 0.2 mm 3 mps 757 mmHg 78%
    21:00 +14°C° 0.2 mm 3 mps 757 mmHg 78%
    22:00 +14°C° 0.2 mm 3 mps 757 mmHg 79%
    23:00 +14°C° 0.2 mm 4 mps 757 mmHg 79%

    Tomorrow, 18 January, Thursday

    Time Temperature Precipitation Wind Pressure Humidity
    00:00 +14°C° 0.2 mm 4 mps 757 mmHg 80%
    01:00 +14°C° 0.2 mm 4 mps 757 mmHg 80%
    02:00 +13°C° 0.2 mm 5 mps 757 mmHg 81%
    03:00 +13°C° 0.1 mm 5 mps 756 mmHg 80%
    04:00 +13°C° 0.1 mm 5 mps 756 mmHg 80%
    05:00 +13°C° 0.1 mm 5 mps 756 mmHg 79%
    06:00 +13°C° 0.1 mm 6 mps 756 mmHg 77%
    07:00 +13°C° 0.1 mm 6 mps 756 mmHg 75%
    08:00 +14°C° 0.1 mm 6 mps 756 mmHg 73%
    09:00 +15°C° 0 mm 7 mps 755 mmHg 68%
    10:00 +16°C° 0 mm 8 mps 755 mmHg 63%
    11:00 +17°C° 0 mm 9 mps 755 mmHg 57%
    12:00 +17°C° 0 mm 9 mps 754 mmHg 55%
    13:00 +18°C° 0 mm 10 mps 754 mmHg 52%
    14:00 +18°C° 0 mm 10 mps 753 mmHg 49%
    15:00 +17°C° 0 mm 10 mps 752 mmHg 50%
    16:00 +17°C° 0 mm 9 mps 752 mmHg 51%
    17:00 +16°C° 0 mm 9 mps 751 mmHg 51%
    18:00 +16°C° 0.2 mm 10 mps 751 mmHg 51%
    19:00 +16°C° 0.2 mm 11 mps 751 mmHg 50%
    20:00 +15°C° 0.2 mm 12 mps 750 mmHg 49%
    21:00 +14°C° 1.5 mm 13 mps 750 mmHg 57%
    22:00 +14°C° 1.5 mm 14 mps 750 mmHg 65%
    23:00 +13°C° 1.5 mm 15 mps 750 mmHg 73%

    Day after tomorrow, 19 January, Friday

    Time Temperature Precipitation Wind Pressure Humidity
    00:00 +11°C° 1.2 mm 16 mps 751 mmHg 69%
    01:00 +10°C° 1.2 mm 16 mps 751 mmHg 65%
    02:00 +10°C° 1.2 mm 16 mps 751 mmHg 61%
    03:00 +9°C° 0.6 mm 15 mps 751 mmHg 62%
    04:00 +9°C° 0.6 mm 14 mps 751 mmHg 64%
    05:00 +9°C° 0.6 mm 14 mps 752 mmHg 65%
    06:00 +9°C° 0.5 mm 13 mps 752 mmHg 64%
    07:00 +9°C° 0.5 mm 12 mps 753 mmHg 64%
    08:00 +10°C° 0.5 mm 12 mps 754 mmHg 63%
    09:00 +12°C° 0.2 mm 12 mps 755 mmHg 60%
    10:00 +12°C° 0.2 mm 12 mps 755 mmHg 57%
    11:00 +13°C° 0.2 mm 11 mps 756 mmHg 54%
    12:00 +13°C° 0.1 mm 11 mps 756 mmHg 55%
    13:00 +13°C° 0.1 mm 11 mps 756 mmHg 56%
    14:00 +13°C° 0.1 mm 10 mps 756 mmHg 56%
    15:00 +13°C° 0 mm 9 mps 757 mmHg 59%
    16:00 +12°C° 0 mm 8 mps 757 mmHg 62%
    17:00 +12°C° 0 mm 8 mps 758 mmHg 64%
    18:00 +12°C° 0 mm 7 mps 758 mmHg 66%
    19:00 +11°C° 0 mm 6 mps 759 mmHg 67%
    20:00 +12°C° 0 mm 5 mps 760 mmHg 69%
    21:00 +12°C° 0 mm 4 mps 760 mmHg 70%
    22:00 +12°C° 0 mm 4 mps 760 mmHg 70%
    23:00 +12°C° 0 mm 3 mps 761 mmHg 71%

    20 January, Saturday

    Time Temperature Precipitation Wind Pressure Humidity
    00:00 +11°C° 0 mm 3 mps 761 mmHg 71%
    01:00 +11°C° 0 mm 3 mps 761 mmHg 72%
    02:00 +12°C° 0 mm 2 mps 761 mmHg 72%
    03:00 +12°C° 0 mm 2 mps 761 mmHg 72%
    04:00 +12°C° 0 mm 2 mps 761 mmHg 72%
    05:00 +12°C° 0 mm 2 mps 762 mmHg 73%
    06:00 +12°C° 0 mm 2 mps 762 mmHg 72%
    07:00 +13°C° 0 mm 2 mps 762 mmHg 72%
    08:00 +12°C° 0 mm 3 mps 763 mmHg 71%
    09:00 +13°C° 0 mm 3 mps 763 mmHg 67%
    10:00 +16°C° 0 mm 3 mps 763 mmHg 62%
    11:00 +17°C° 0 mm 3 mps 763 mmHg 58%
    12:00 +17°C° 0 mm 3 mps 762 mmHg 57%
    13:00 +18°C° 0 mm 2 mps 762 mmHg 56%
    14:00 +18°C° 0 mm 2 mps 762 mmHg 55%
    15:00 +17°C° 0 mm 2 mps 762 mmHg 59%
    16:00 +16°C° 0 mm 1 mps 762 mmHg 63%
    17:00 +16°C° 0 mm 1 mps 762 mmHg 67%
    18:00 +15°C° 0 mm 1 mps 762 mmHg 69%
    19:00 +15°C° 0 mm 1 mps 762 mmHg 71%
    20:00 +13°C° 0 mm 0 mps 763 mmHg 72%
    21:00 +14°C° 0 mm 1 mps 763 mmHg 72%
    22:00 +14°C° 0 mm 1 mps 762 mmHg 71%
    23:00 +14°C° 0 mm 2 mps 762 mmHg 71%

    21 January, Sunday

    Time Temperature Precipitation Wind Pressure Humidity
    00:00 +14°C° 0 mm 2 mps 762 mmHg 70%
    01:00 +14°C° 0 mm 2 mps 761 mmHg 68%
    02:00 +13°C° 0 mm 3 mps 761 mmHg 67%
    03:00 +13°C° 0 mm 3 mps 761 mmHg 65%
    04:00 +13°C° 0 mm 3 mps 760 mmHg 63%
    05:00 +13°C° 0 mm 3 mps 760 mmHg 60%
    06:00 +13°C° 0 mm 3 mps 760 mmHg 56%
    07:00 +14°C° 0 mm 3 mps 760 mmHg 53%
    08:00 +14°C° 0 mm 3 mps 760 mmHg 49%
    09:00 +17°C° 0 mm 3 mps 760 mmHg 43%
    10:00 +19°C° 0 mm 3 mps 759 mmHg 37%
    11:00 +21°C° 0 mm 3 mps 759 mmHg 31%
    12:00 +21°C° 0 mm 3 mps 758 mmHg 29%
    13:00 +22°C° 0 mm 3 mps 757 mmHg 28%
    14:00 +24°C° 0 mm 2 mps 757 mmHg 26%
    15:00 +21°C° 0 mm 2 mps 756 mmHg 29%
    16:00 +20°C° 0 mm 2 mps 756 mmHg 32%
    17:00 +19°C° 0 mm 2 mps 756 mmHg 35%
    18:00 +19°C° 0 mm 2 mps 755 mmHg 33%
    19:00 +18°C° 0 mm 2 mps 755 mmHg 31%
    20:00 +18°C° 0 mm 3 mps 755 mmHg 30%
    21:00 +18°C° 0 mm 3 mps 755 mmHg 29%
    22:00 +18°C° 0 mm 3 mps 755 mmHg 28%
    23:00 +17°C° 0 mm 3 mps 754 mmHg 28%

    22 January, Monday

    Time Temperature Precipitation Wind Pressure Humidity
    00:00 +17°C° 0 mm 3 mps 754 mmHg 28%
    01:00 +17°C° 0 mm 3 mps 754 mmHg 27%
    02:00 +17°C° 0 mm 3 mps 753 mmHg 27%
    03:00 +15°C° 0 mm 4 mps 753 mmHg 26%
    04:00 +15°C° 0 mm 4 mps 753 mmHg 26%
    05:00 +15°C° 0 mm 4 mps 753 mmHg 25%
    06:00 +15°C° 0 mm 4 mps 753 mmHg 28%
    07:00 +16°C° 0 mm 5 mps 753 mmHg 31%
    08:00 +16°C° 0 mm 5 mps 753 mmHg 33%
    09:00 +17°C° 0 mm 5 mps 753 mmHg 34%
    10:00 +20°C° 0 mm 6 mps 753 mmHg 35%
    11:00 +21°C° 0 mm 7 mps 753 mmHg 35%
    12:00 +21°C° 0 mm 7 mps 752 mmHg 35%
    13:00 +21°C° 0 mm 7 mps 752 mmHg 34%
    14:00 +21°C° 0 mm 7 mps 751 mmHg 33%
    15:00 +20°C° 0 mm 6 mps 751 mmHg 37%
    16:00 +19°C° 0 mm 4 mps 751 mmHg 40%
    17:00 +18°C° 0 mm 3 mps 751 mmHg 43%
    18:00 +18°C° 0 mm 4 mps 751 mmHg 43%
    19:00 +17°C° 0 mm 4 mps 752 mmHg 43%
    20:00 +15°C° 0 mm 4 mps 752 mmHg 43%
    21:00 +15°C° 0.1 mm 5 mps 752 mmHg 47%
    22:00 +15°C° 0.1 mm 6 mps 752 mmHg 52%
    23:00 +15°C° 0.1 mm 8 mps 752 mmHg 57%
    Show more